Wind_Speed
12 11 12 16 20 22 23 23 23 23 22 21 21 21 21 22 21 17 14 15 15 14 14 14 15 15 15 15 14 11 11 10 9 4 11 14 13 12 11 11 13 15 14
6 6 5 7 10 13 14 15 18 20 21 20 19 17 21 24 23 17 13 13 17 18 15 16 18 15 15 18 16 14 12 13 12 9 11 12 13 14 13 11 11 13 17
10 11 13 15 18 22 26 26 24 28 27 23 21 30 52 34 20 13 19 23 17 19 20 18 18 18 16 15 19 17 15 14 14 14 14 14 14 13 14 13 13 15 15
22 19 21 20 20 20 20 20 23 24 23 21 20 14 16 17 22 20 23 22 18 20 21 20 18 18 17 17 14 15 15 15 14 13 11 11 12 13 12 15 14 12 16
4 8 8 8 8 10 12 17 20 23 24 18 13 17 25 17 20 22 19 20 22 19 19 22 20 20 19 18 15 12 12 11 10 10 11 12 11 12 13 15 16 14 15
3 5 5 6 7 8 10 11 13 14 16 12 6 9 17 21 21 26 24 22 20 22 22 20 23 22 24 18 15 11 11 11 10 11 11 13 12 10 11 12 13 15 14
5 8 10 11 12 12 11 9 8 8 8 8 6 6 10 13 14 15 17 16 16 17 21 23 23 27 25 18 17 14 9 9 11 8 5 6 7 7 11 14 16 18 20
10 11 12 13 15 16 15 15 13 12 11 8 6 6 9 13 16 17 19 19 21 23 23 25 28 30 27 25 24 17 11 11 9 6 4 0 2 4 4 5 8 10 12
11 13 14 15 17 18 20 22 22 19 18 16 13 10 8 6 5 7 8 12 16 18 20 23 29 32 31 24 17 19 16 13 9 11 8 5 1 5 6 8 8 7 9
12 12 12 14 16 19 21 21 22 22 22 20 22 25 24 25 25 20 15 13 12 8 6 13 15 17 20 16 16 9 6 5 8 11 7 5 1 1 4 6 6 9 10
9 9 10 12 14 17 19 22 22 22 24 24 23 21 17 16 17 18 20 17 18 13 13 10 10 4 6 6 9 15 11 13 12 8 7 4 6 4 4 3 2 4 7
9 9 12 13 15 15 16 18 19 20 21 23 24 23 23 21 21 20 19 19 17 13 13 14 12 9 9 7 6 5 2 11 4 4 4 7 13 14 8 3 2 3 6
10 12 12 12 13 14 14 14 15 16 17 18 18 18 18 19 19 20 21 21 20 18 17 16 15 12 8 5 2 1 3 6 11 14 16 15 14 13 13 16 14 16 15
11 12 11 11 12 12 12 12 12 13 15 16 16 15 14 12 12 12 13 14 13 11 11 11 10 9 8 6 6 7 8 8 11 14 14 14 12 13 15 15 16 18 19
11 9 7 6 7 10 9 10 11 14 17 18 21 20 17 14 13 12 12 14 15 15 10 8 9 10 11 10 9 9 9 10 10 6 5 7 9 8 7 8 9 10 11
7 4 2 2 4 7 7 8 10 13 16 18 20 19 18 19 17 16 14 13 14 15 16 17 16 16 16 15 16 16 15 14 11 13 12 9 7 8 6 7 8 8 9
5 2 1 1 4 6 5 5 6 8 11 12 16 13 11 15 16 15 14 11 12 14 15 14 14 16 16 14 13 13 12 11 10 11 12 10 8 6 9 12 10 10 9
5 4 3 3 4 6 5 4 3 3 5 8 13 11 7 8 8 11 13 10 12 15 16 14 14 15 12 12 11 12 14 11 11 9 10 9 11 10 12 14 13 12 12
7 5 3 1 3 3 2 1 1 2 1 6 13 12 10 7 10 11 10 8 8 10 13 15 14 16 12 10 11 12 12 12 11 10 10 11 12 14 15 15 17 17 18
6 6 7 5 2 2 5 6 6 8 6 7 12 12 7 8 8 9 9 9 10 9 12 11 11 10 9 9 10 12 12 13 13 15 17 20 20 19 16 18 18 17 19
6 6 7 6 4 3 3 3 8 10 9 7 8 11 6 8 9 10 10 9 7 8 9 8 9 10 9 10 9 8 10 12 14 15 15 17 22 21 23 24 25 25 27
8 6 5 4 4 8 6 5 5 6 7 6 5 6 8 6 4 5 4 8 6 6 5 5 7 11 17 22 24 21 18 15 15 16 15 16 18 21 22 23 25 26 30
10 8 4 7 7 4 4 4 6 5 4 3 4 5 5 2 5 6 6 8 10 13 15 17 20 24 26 22 15 14 15 16 17 19 21 24 27 28 31 33 33 33 33
11 9 8 6 8 6 4 5 5 3 3 1 4 8 6 6 8 11 14 17 17 19 20 22 27 26 17 18 19 18 20 23 26 27 27 26 26 25 26 27 27 27 27
10 7 3 6 5 4 2 0 0 2 4 3 5 4 6 9 13 16 18 20 19 20 25 27 25 21 22 23 23 24 25 24 23 24 25 27 26 24 21 19 18 21 22
10 8 7 8 7 5 2 4 3 6 3 5 6 8 12 17 18 17 19 22 21 25 24 25 23 24 23 23 24 23 20 21 25 25 25 23 20 18 19 20 22 24 26
Wind_Direction
248 262 265 255 256 258 264 271 272 267 263 250 258 260 259 269 272 278 292 292 265 261 254 251 243 240 241 244 247 246 241 244 244 165 183 189 198 211 230 248 260 266 252
258 258 269 263 262 265 276 284 295 284 279 262 263 286 283 275 276 277 286 299 295 273 260 259 252 252 251 231 237 242 243 241 239 229 211 211 221 232 244 255 263 271 259
263 271 266 263 265 269 270 271 275 271 274 289 297 312 308 285 273 288 293 274 272 282 268 259 251 249 246 239 234 240 245 246 252 250 245 246 245 238 240 242 260 264 252
251 253 262 274 277 277 282 280 284 288 293 296 286 279 6 273 257 240 287 282 258 267 263 256 248 243 247 242 243 243 243 242 242 244 250 235 224 226 233 246 248 259 262
199 217 247 262 282 290 295 297 298 309 320 332 287 269 251 283 258 263 279 266 265 269 267 258 251 244 248 245 249 248 250 246 242 239 240 242 249 244 239 241 242 252 260
29 55 32 358 340 337 338 352 348 342 340 343 347 287 268 275 265 278 275 271 264 264 264 264 255 244 244 245 245 239 264 252 240 246 253 255 249 252 250 251 252 251 258
35 51 44 36 29 26 24 12 359 356 343 332 308 282 278 287 285 276 272 271 266 275 284 269 252 247 244 233 230 221 228 245 246 234 232 248 252 266 279 276 272 270 270
65 59 48 39 43 42 37 33 31 29 32 26 358 320 292 275 272 277 273 268 266 270 270 261 251 244 236 235 221 220 213 190 188 185 185 93 349 313 299 310 305 289 281
68 61 52 47 45 42 42 43 44 46 49 48 46 37 28 11 343 336 324 290 290 286 283 279 257 236 228 218 198 172 181 186 188 213 202 185 226 317 290 296 304 323 347
66 59 52 53 52 51 51 54 56 58 55 50 59 64 69 71 57 38 37 52 28 349 300 267 221 222 205 167 151 146 258 245 209 210 203 239 153 341 282 289 281 293 312
56 54 66 65 61 58 60 62 63 63 62 59 59 60 58 51 41 49 52 58 52 40 25 27 11 86 269 293 258 291 215 198 192 196 223 244 270 262 296 289 297 237 273
71 83 83 70 63 61 62 63 65 64 61 63 63 64 60 56 56 54 53 55 54 46 43 36 37 37 37 44 51 31 205 228 258 233 254 278 272 261 246 247 295 272 267
91 94 88 73 67 61 53 53 53 53 55 57 55 55 53 50 48 50 55 56 56 58 59 59 56 55 52 57 41 263 242 262 253 256 267 272 272 276 290 278 288 284 277
104 101 94 75 73 54 45 45 40 47 46 46 47 44 40 35 33 32 31 32 31 29 30 31 29 22 10 351 328 321 303 293 289 275 267 269 276 274 275 288 292 296 289
122 107 89 63 52 35 37 46 54 56 55 52 48 40 37 34 35 40 50 52 46 40 37 40 42 44 45 39 32 22 25 15 24 342 308 305 314 328 347 351 339 341 344
123 108 44 20 22 15 36 57 72 65 68 62 45 39 45 52 61 59 53 55 55 55 54 50 48 41 37 36 37 37 34 28 36 33 18 12 25 37 26 19 8 2 349
156 144 88 80 41 62 62 77 72 86 72 64 48 43 58 61 58 52 40 40 56 48 35 30 28 17 15 18 17 24 23 33 38 30 34 36 20 18 7 359 346 343 343
178 173 161 88 52 46 87 88 79 44 74 59 45 46 68 56 60 49 46 48 44 25 24 23 20 19 14 21 34 23 13 5 4 0 354 345 344 334 332 332 322 322 323
181 199 187 48 39 38 85 310 216 228 135 71 60 61 59 72 39 37 38 40 20 15 18 21 16 11 4 359 351 348 349 352 345 349 349 341 330 322 319 316 311 309 308
177 185 166 165 168 137 96 114 99 125 139 97 73 54 48 28 29 32 18 13 19 1 359 360 4 0 354 344 329 326 323 322 320 317 317 316 318 322 324 328 326 319 321
192 200 174 172 178 200 157 97 89 98 101 87 62 30 23 353 337 327 336 330 314 313 316 309 306 309 312 316 323 312 313 310 305 302 302 304 310 308 308 306 306 299 299
171 186 196 252 180 132 114 93 89 92 84 54 8 14 349 3 55 54 31 353 356 348 337 324 317 320 324 324 320 307 299 300 299 296 292 293 299 298 298 294 293 286 291
201 186 181 153 151 169 132 69 83 109 78 35 7 13 1 350 13 15 4 359 344 335 329 324 323 325 327 326 325 326 322 314 310 308 305 303 302 300 299 296 293 289 287
180 169 163 187 153 140 123 129 126 80 359 330 311 329 318 319 331 334 334 330 329 332 334 332 333 332 323 323 322 317 315 315 314 312 311 311 312 310 308 305 303 300 296
161 163 160 168 160 157 198 93 58 328 308 294 320 294 306 318 326 332 338 341 329 327 332 332 333 327 322 318 318 320 321 322 324 325 320 317 317 318 322 325 326 323 319
169 158 168 170 167 170 179 288 252 300 297 322 319 315 319 324 328 330 329 324 328 332 332 330 327 326 325 322 321 324 327 329 327 323 317 318 321 321 321 325 327 327 325
Height
1535 1536 1537 1537 1538 1539 1540 1541 1541 1539 1535 1534 1534 1535 1536 1537 1537 1539 1537 1537 1537 1536 1535 1535 1536 1535 1534 1534 1534 1533 1533 1533 1534 1534 1534 1534 1535 1536 1537 1538 1538 1538 1539
1533 1535 1535 1536 1536 1536 1537 1537 1538 1537 1536 1535 1531 1534 1539 1536 1534 1534 1534 1531 1532 1532 1532 1531 1532 1532 1531 1530 1530 1530 1531 1531 1532 1533 1534 1534 1534 1535 1535 1535 1535 1535 1535
1533 1535 1535 1535 1536 1536 1535 1534 1531 1529 1521 1514 1525 1517 1505 1528 1527 1526 1529 1525 1522 1525 1528 1527 1527 1528 1529 1528 1527 1526 1527 1527 1529 1529 1529 1530 1531 1532 1532 1532 1532 1532 1531
1531 1532 1531 1531 1531 1530 1530 1529 1527 1524 1518 1516 1520 1521 1517 1517 1523 1522 1521 1521 1519 1519 1522 1523 1524 1524 1524 1526 1524 1524 1525 1524 1524 1526 1527 1526 1526 1527 1528 1529 1529 1528 1527
1527 1529 1528 1529 1528 1527 1526 1524 1522 1518 1514 1515 1514 1515 1515 1514 1514 1518 1516 1516 1517 1516 1517 1518 1518 1519 1520 1520 1521 1520 1521 1522 1521 1522 1523 1523 1524 1524 1524 1524 1525 1525 1524
1527 1527 1528 1528 1527 1525 1523 1522 1519 1516 1513 1511 1510 1510 1509 1511 1513 1512 1511 1511 1512 1512 1512 1512 1513 1514 1514 1515 1515 1515 1518 1518 1519 1519 1520 1521 1521 1522 1522 1521 1521 1521 1521
1526 1527 1527 1526 1525 1524 1522 1521 1519 1516 1514 1512 1510 1509 1509 1509 1507 1506 1507 1506 1506 1506 1506 1507 1507 1507 1509 1510 1511 1511 1510 1515 1517 1516 1517 1517 1518 1518 1519 1519 1517 1517 1516
1526 1526 1527 1526 1525 1524 1522 1520 1517 1515 1513 1511 1509 1507 1505 1504 1504 1504 1502 1501 1499 1499 1498 1497 1499 1500 1502 1504 1504 1504 1506 1509 1513 1514 1515 1515 1516 1515 1515 1515 1514 1512 1511
1527 1527 1527 1527 1526 1524 1522 1519 1517 1515 1513 1511 1510 1507 1506 1503 1502 1500 1498 1497 1495 1494 1492 1490 1491 1490 1493 1494 1497 1498 1502 1506 1508 1511 1513 1511 1511 1511 1512 1512 1512 1511 1509
1529 1529 1529 1529 1528 1526 1524 1522 1521 1518 1516 1513 1511 1509 1508 1505 1503 1501 1498 1495 1493 1491 1491 1490 1487 1485 1487 1479 1490 1494 1500 1504 1504 1508 1511 1512 1509 1508 1509 1508 1508 1508 1509
1531 1531 1531 1530 1529 1529 1528 1526 1524 1522 1520 1517 1515 1513 1512 1510 1508 1505 1503 1500 1498 1498 1498 1496 1495 1496 1498 1498 1499 1501 1502 1505 1502 1504 1506 1508 1508 1508 1509 1508 1505 1505 1506
1532 1532 1532 1532 1531 1530 1530 1529 1528 1525 1523 1521 1519 1517 1515 1513 1511 1508 1505 1502 1502 1502 1500 1499 1499 1499 1499 1500 1502 1505 1502 1504 1503 1504 1503 1505 1507 1506 1507 1505 1503 1503 1502
1533 1534 1534 1534 1533 1533 1532 1531 1529 1528 1526 1524 1522 1521 1518 1516 1514 1513 1511 1508 1507 1505 1504 1504 1503 1502 1502 1502 1503 1503 1503 1503 1504 1503 1504 1504 1503 1501 1502 1499 1500 1500 1501
1534 1535 1535 1535 1535 1535 1534 1532 1530 1528 1527 1526 1524 1523 1521 1519 1517 1515 1513 1511 1510 1509 1507 1506 1506 1506 1505 1505 1503 1502 1501 1500 1499 1498 1499 1499 1499 1498 1496 1496 1496 1495 1494
1534 1535 1536 1536 1536 1536 1535 1534 1532 1530 1529 1528 1527 1525 1523 1520 1518 1517 1515 1513 1512 1510 1509 1508 1507 1506 1505 1503 1502 1501 1500 1499 1497 1496 1494 1494 1494 1494 1493 1494 1494 1493 1490
1535 1536 1536 1536 1536 1535 1535 1534 1533 1532 1531 1530 1529 1528 1525 1523 1522 1521 1519 1517 1515 1514 1512 1510 1509 1508 1507 1505 1504 1503 1501 1500 1498 1497 1496 1494 1494 1493 1495 1494 1493 1492 1491
1536 1536 1536 1536 1536 1536 1535 1535 1534 1533 1532 1532 1531 1529 1528 1528 1526 1524 1521 1519 1518 1517 1514 1513 1511 1510 1508 1507 1505 1504 1502 1501 1500 1499 1498 1497 1496 1496 1496 1493 1492 1491 1490
1535 1536 1536 1536 1537 1536 1536 1536 1535 1535 1534 1534 1533 1531 1530 1529 1528 1526 1524 1522 1520 1518 1517 1515 1513 1512 1510 1509 1507 1506 1504 1503 1501 1500 1498 1497 1497 1495 1494 1492 1491 1490 1488
1534 1535 1536 1536 1536 1537 1536 1536 1535 1535 1535 1535 1534 1532 1531 1531 1530 1528 1526 1524 1522 1521 1519 1517 1516 1514 1512 1510 1509 1507 1505 1503 1502 1500 1498 1497 1496 1494 1493 1491 1489 1487 1485
1533 1534 1535 1535 1536 1535 1535 1535 1535 1534 1535 1535 1534 1533 1532 1531 1530 1529 1527 1526 1524 1522 1520 1518 1516 1514 1512 1510 1508 1506 1504 1502 1500 1498 1497 1494 1492 1491 1489 1487 1485 1482 1481
1532 1532 1533 1534 1534 1535 1534 1534 1534 1534 1534 1534 1534 1533 1532 1531 1530 1529 1527 1525 1524 1521 1519 1517 1515 1512 1510 1507 1505 1502 1500 1498 1495 1493 1491 1489 1487 1485 1484 1482 1480 1478 1476
1532 1534 1533 1534 1534 1535 1536 1536 1535 1534 1534 1535 1534 1534 1532 1530 1528 1527 1525 1523 1522 1520 1518 1516 1513 1510 1507 1504 1501 1498 1496 1493 1491 1488 1486 1484 1481 1479 1477 1474 1472 1470 1468
1531 1530 1533 1534 1534 1535 1535 1535 1535 1534 1534 1533 1533 1532 1531 1530 1529 1527 1525 1523 1521 1519 1516 1513 1510 1506 1502 1498 1495 1493 1491 1488 1485 1483 1480 1478 1475 1472 1469 1465 1462 1459 1456
1529 1530 1530 1533 1533 1533 1534 1534 1535 1535 1534 1533 1532 1532 1530 1529 1528 1526 1524 1521 1518 1515 1512 1508 1505 1501 1497 1495 1492 1489 1487 1484 1480 1476 1473 1469 1466 1462 1458 1455 1451 1448 1445
1528 1530 1532 1532 1532 1533 1533 1534 1534 1534 1533 1532 1532 1531 1529 1527 1525 1523 1521 1519 1516 1512 1508 1503 1500 1497 1494 1491 1487 1484 1480 1476 1473 1469 1466 1462 1458 1454 1450 1447 1444 1441 1438
1527 1529 1530 1531 1531 1531 1532 1533 1533 1532 1532 1531 1530 1529 1528 1526 1523 1520 1518 1515 1512 1509 1504 1499 1496 1492 1489 1485 1482 1478 1475 1472 1468 1464 1459 1455 1452 1449 1446 1443 1439 1435 1431